Hourly Weather Juchipila

Today, 11 May, Tuesday

Time Temperature Precipitation Wind Pressure Humidity
00:00 +22°C° 0.1 mm 0 mps 644 mmHg 67%
01:00 +21°C° 0.1 mm 0 mps 644 mmHg 68%
02:00 +21°C° 0.1 mm 0 mps 643 mmHg 69%
03:00 +21°C° 0.1 mm 0 mps 643 mmHg 70%
04:00 +21°C° 0.1 mm 0 mps 643 mmHg 72%
05:00 +20°C° 0.1 mm 0 mps 643 mmHg 73%
06:00 +21°C° 0.1 mm 0 mps 644 mmHg 68%
07:00 +22°C° 0.1 mm 0 mps 644 mmHg 63%
08:00 +25°C° 0.1 mm 1 mps 645 mmHg 57%
09:00 +27°C° 0 mm 1 mps 645 mmHg 51%
10:00 +28°C° 0 mm 1 mps 645 mmHg 44%
11:00 +30°C° 0 mm 2 mps 645 mmHg 38%
12:00 +31°C° 0 mm 2 mps 645 mmHg 34%
13:00 +33°C° 0 mm 3 mps 644 mmHg 31%
14:00 +34°C° 0 mm 3 mps 644 mmHg 28%
15:00 +33°C° 0 mm 3 mps 643 mmHg 31%
16:00 +32°C° 0 mm 4 mps 643 mmHg 35%
17:00 +30°C° 0 mm 4 mps 643 mmHg 38%
18:00 +29°C° 0 mm 3 mps 643 mmHg 43%
19:00 +27°C° 0 mm 3 mps 644 mmHg 47%
20:00 +26°C° 0 mm 2 mps 644 mmHg 52%
21:00 +26°C° 0 mm 2 mps 644 mmHg 51%
22:00 +26°C° 0 mm 2 mps 645 mmHg 51%
23:00 +26°C° 0 mm 2 mps 645 mmHg 50%

Tomorrow, 12 May, Wednesday

Time Temperature Precipitation Wind Pressure Humidity
00:00 +26°C° 0 mm 1 mps 644 mmHg 51%
01:00 +25°C° 0 mm 1 mps 644 mmHg 51%
02:00 +25°C° 0 mm 1 mps 644 mmHg 52%
03:00 +24°C° 0 mm 1 mps 644 mmHg 53%
04:00 +24°C° 0 mm 1 mps 644 mmHg 55%
05:00 +23°C° 0 mm 1 mps 644 mmHg 57%
06:00 +24°C° 0 mm 1 mps 645 mmHg 52%
07:00 +25°C° 0 mm 1 mps 646 mmHg 48%
08:00 +27°C° 0 mm 1 mps 646 mmHg 43%
09:00 +28°C° 0 mm 1 mps 646 mmHg 39%
10:00 +29°C° 0 mm 1 mps 646 mmHg 35%
11:00 +31°C° 0 mm 2 mps 647 mmHg 32%
12:00 +31°C° 0 mm 2 mps 646 mmHg 30%
13:00 +32°C° 0 mm 2 mps 645 mmHg 29%
14:00 +32°C° 0 mm 2 mps 645 mmHg 28%
15:00 +32°C° 0 mm 2 mps 645 mmHg 29%
16:00 +31°C° 0 mm 2 mps 645 mmHg 30%
17:00 +31°C° 0 mm 3 mps 644 mmHg 31%
18:00 +30°C° 0 mm 2 mps 645 mmHg 34%
19:00 +29°C° 0 mm 2 mps 645 mmHg 38%
20:00 +28°C° 0 mm 2 mps 645 mmHg 41%
21:00 +28°C° 0 mm 1 mps 645 mmHg 42%
22:00 +27°C° 0 mm 1 mps 646 mmHg 43%
23:00 +27°C° 0 mm 1 mps 646 mmHg 44%

Day after tomorrow, 13 May, Thursday

Time Temperature Precipitation Wind Pressure Humidity
00:00 +27°C° 0 mm 1 mps 645 mmHg 46%
01:00 +26°C° 0 mm 1 mps 645 mmHg 48%
02:00 +26°C° 0 mm 1 mps 645 mmHg 50%
03:00 +25°C° 0.1 mm 1 mps 645 mmHg 53%
04:00 +25°C° 0.1 mm 1 mps 645 mmHg 56%
05:00 +24°C° 0.1 mm 1 mps 645 mmHg 59%
06:00 +25°C° 0.1 mm 2 mps 646 mmHg 57%
07:00 +26°C° 0.1 mm 3 mps 647 mmHg 55%
08:00 +26°C° 0.1 mm 3 mps 647 mmHg 53%
09:00 +28°C° 0 mm 3 mps 647 mmHg 47%
10:00 +29°C° 0 mm 3 mps 647 mmHg 41%
11:00 +32°C° 0 mm 4 mps 647 mmHg 36%
12:00 +31°C° 0 mm 3 mps 647 mmHg 34%
13:00 +31°C° 0 mm 3 mps 646 mmHg 32%
14:00 +33°C° 0 mm 3 mps 646 mmHg 30%
15:00 +31°C° 0.1 mm 2 mps 645 mmHg 34%
16:00 +30°C° 0.1 mm 2 mps 645 mmHg 38%
17:00 +29°C° 0.1 mm 2 mps 645 mmHg 41%
18:00 +27°C° 0.4 mm 2 mps 645 mmHg 47%
19:00 +26°C° 0.4 mm 3 mps 646 mmHg 53%
20:00 +25°C° 0.4 mm 3 mps 646 mmHg 59%
21:00 +24°C° 0.2 mm 3 mps 646 mmHg 59%
22:00 +24°C° 0.2 mm 3 mps 647 mmHg 60%
23:00 +22°C° 0.2 mm 3 mps 647 mmHg 60%

14 May, Friday

Time Temperature Precipitation Wind Pressure Humidity
00:00 +23°C° 0 mm 2 mps 646 mmHg 61%
01:00 +21°C° 0 mm 2 mps 646 mmHg 63%
02:00 +21°C° 0 mm 2 mps 646 mmHg 65%
03:00 +20°C° 0 mm 2 mps 646 mmHg 66%
04:00 +21°C° 0 mm 1 mps 646 mmHg 68%
05:00 +21°C° 0 mm 1 mps 646 mmHg 70%
06:00 +22°C° 0 mm 1 mps 646 mmHg 64%
07:00 +23°C° 0 mm 1 mps 647 mmHg 58%
08:00 +24°C° 0 mm 1 mps 647 mmHg 53%
09:00 +26°C° 0 mm 1 mps 647 mmHg 47%
10:00 +28°C° 0 mm 1 mps 647 mmHg 42%
11:00 +30°C° 0 mm 1 mps 647 mmHg 37%
12:00 +30°C° 0 mm 1 mps 646 mmHg 35%
13:00 +31°C° 0 mm 1 mps 646 mmHg 34%
14:00 +31°C° 0 mm 1 mps 645 mmHg 33%
15:00 +30°C° 0.1 mm 1 mps 645 mmHg 35%
16:00 +30°C° 0.1 mm 1 mps 644 mmHg 37%
17:00 +29°C° 0.1 mm 2 mps 644 mmHg 38%
18:00 +29°C° 0 mm 1 mps 644 mmHg 40%
19:00 +28°C° 0 mm 1 mps 644 mmHg 41%
20:00 +28°C° 0 mm 1 mps 645 mmHg 42%
21:00 +27°C° 0.4 mm 1 mps 645 mmHg 48%
22:00 +26°C° 0.4 mm 1 mps 645 mmHg 54%
23:00 +24°C° 0.4 mm 2 mps 646 mmHg 60%

15 May, Saturday

Time Temperature Precipitation Wind Pressure Humidity
00:00 +24°C° 0.2 mm 1 mps 645 mmHg 62%
01:00 +24°C° 0.2 mm 1 mps 645 mmHg 63%
02:00 +24°C° 0.2 mm 1 mps 645 mmHg 65%
03:00 +23°C° 0 mm 1 mps 645 mmHg 68%
04:00 +23°C° 0 mm 1 mps 645 mmHg 70%
05:00 +20°C° 0 mm 0 mps 645 mmHg 72%
06:00 +22°C° 0 mm 0 mps 645 mmHg 67%
07:00 +23°C° 0 mm 0 mps 646 mmHg 61%
08:00 +24°C° 0 mm 0 mps 646 mmHg 55%
09:00 +28°C° 0 mm 1 mps 646 mmHg 47%
10:00 +29°C° 0 mm 1 mps 646 mmHg 38%
11:00 +31°C° 0 mm 1 mps 646 mmHg 29%
12:00 +32°C° 0 mm 2 mps 646 mmHg 26%
13:00 +34°C° 0 mm 3 mps 645 mmHg 22%
14:00 +35°C° 0 mm 4 mps 645 mmHg 18%
15:00 +35°C° 0 mm 5 mps 644 mmHg 18%
16:00 +35°C° 0 mm 5 mps 644 mmHg 17%
17:00 +35°C° 0 mm 6 mps 644 mmHg 17%
18:00 +33°C° 0 mm 5 mps 644 mmHg 20%
19:00 +30°C° 0 mm 4 mps 644 mmHg 23%
20:00 +28°C° 0 mm 3 mps 644 mmHg 25%
21:00 +27°C° 0 mm 3 mps 644 mmHg 27%
22:00 +27°C° 0 mm 2 mps 645 mmHg 29%
23:00 +26°C° 0 mm 2 mps 645 mmHg 31%

16 May, Sunday

Time Temperature Precipitation Wind Pressure Humidity
00:00 +25°C° 0 mm 2 mps 645 mmHg 35%
01:00 +24°C° 0 mm 2 mps 644 mmHg 39%
02:00 +24°C° 0 mm 2 mps 644 mmHg 43%
03:00 +23°C° 0 mm 2 mps 644 mmHg 46%
04:00 +21°C° 0 mm 2 mps 644 mmHg 50%
05:00 +22°C° 0 mm 1 mps 645 mmHg 53%
06:00 +23°C° 0 mm 1 mps 645 mmHg 48%
07:00 +25°C° 0 mm 1 mps 646 mmHg 43%
08:00 +26°C° 0 mm 1 mps 646 mmHg 38%
09:00 +28°C° 0 mm 2 mps 646 mmHg 32%
10:00 +30°C° 0 mm 2 mps 646 mmHg 26%
11:00 +31°C° 0 mm 2 mps 647 mmHg 21%
12:00 +33°C° 0 mm 3 mps 646 mmHg 19%
13:00 +34°C° 0 mm 3 mps 646 mmHg 17%
14:00 +36°C° 0 mm 4 mps 645 mmHg 15%
15:00 +35°C° 0 mm 4 mps 645 mmHg 15%
16:00 +35°C° 0 mm 4 mps 645 mmHg 15%
17:00 +35°C° 0 mm 5 mps 644 mmHg 15%
18:00 +33°C° 0 mm 4 mps 644 mmHg 20%
19:00 +30°C° 0 mm 3 mps 644 mmHg 24%
20:00 +28°C° 0 mm 3 mps 644 mmHg 28%
21:00 +28°C° 0 mm 2 mps 645 mmHg 31%
22:00 +27°C° 0 mm 2 mps 645 mmHg 33%
23:00 +26°C° 0 mm 2 mps 645 mmHg 36%
Show more

We Need Your Consent

Meteoprog and our Service Providers may store and access personal data such as cookies, device identifiers or other similar technologies on your device and process such data to personalise content and ads, as well as provide social media features and to analyse the traffic.

  • Store and/or access information on your device

    Cookies, device identifiers or other information can be stored or accessed on your device for the purposes indicated above.

  • Personalised ads and content, ad and content measurement, audience insights, and products development

    Ads and content can be personalised based on a profile. More data can be added to better personalise ads and content. Ad and content performance can be measured. Insights about the audience who saw the ads and content can be derived. Such data can be used to develop or improve user’s experience, systems and software.

By clicking ‘I Agree’ you will allow the use of indicated cookies, device identifiers, web beacons or other similar technologies. Your settings can be changed in the browser on your device.

For certain purposes, legitimate interests may be relied on, rather than consent. You can read more about this in our Privacy and Cookie Policy.